SUFFOLK/WSTHMPTN, NY current weather conditions

sailwx.info

Wind from 260 at 7 knots

Air temperature -1.0° C
Visibility: greater than 8.7 NM
Dewpoint -7.0° C

Last reported at 2019-Dec-06 07:00 UTC.
Time now 2019-Dec-06 07:40 UTC

Location: N 40°51' W 072°37'.
View on Google Maps.

See reports from other nearby stations

  
Tides and Currents Weather Stations Pressure Air Temp Water Temp Dewpoint Dewpoint Depression Visibility Wind Speed Wind Dir Waves Ship Positions
date/time (UTC)wind fromknots sea level pressurealtimeterstation pressurevisibilityair tempwater tempwave heightnotes
2019-Dec-06 07:00 260 7 8.7-1.0
2019-Dec-06 06:55 280 7 8.7-1.0
2019-Dec-06 06:53 280 6 8.7-0.6
2019-Dec-06 06:50 280 7 8.7-1.0
2019-Dec-06 06:45 270 7 8.7-1.0
2019-Dec-06 06:40 260 8 8.7-1.0
2019-Dec-06 06:35 270 9 8.7-1.0
2019-Dec-06 06:30 270 7 8.7-1.0
2019-Dec-06 06:25 270 7 8.7-1.0
2019-Dec-06 06:20 260 7 8.7-1.0
2019-Dec-06 06:15 270 6 8.7-1.0
2019-Dec-06 06:10 270 6 8.7-0.0
2019-Dec-06 06:05 280 6 8.7-0.0
2019-Dec-06 06:00 280 8 8.7-0.0
2019-Dec-06 05:55 280 6 8.7-0.0
2019-Dec-06 05:53 280 6 8.7-0.0
2019-Dec-06 05:50 280 7 8.7-0.0
2019-Dec-06 05:45 270 7 8.7-0.0
2019-Dec-06 05:40 270 7 8.7 1.0
2019-Dec-06 05:35 270 7 8.7 1.0
2019-Dec-06 05:30 270 7 8.7 1.0
2019-Dec-06 05:25 280 7 8.7 1.0
2019-Dec-06 05:20 270 8 8.7 1.0
2019-Dec-06 05:15 280 8 8.7 1.0
2019-Dec-06 05:10 280 8 8.7 1.0
2019-Dec-06 05:05 280 10 8.7 2.0
2019-Dec-06 05:00 290 10 8.7 2.0
2019-Dec-06 04:55 280 9 8.7 2.0
2019-Dec-06 04:53 280 9 8.7 1.7
2019-Dec-06 04:50 290 10 8.7 2.0
2019-Dec-06 04:45 290 9 8.7 2.0
2019-Dec-06 04:40 290 8 8.7 2.0
2019-Dec-06 04:35 290 9 8.7 2.0
2019-Dec-06 04:30 280 7 8.7 2.0
2019-Dec-06 04:25 290 14 8.7 2.0
2019-Dec-06 04:20 280 10 8.7 2.0
2019-Dec-06 04:15 280 9 8.7 2.0
2019-Dec-06 04:10 290 13 8.7 2.0
2019-Dec-06 04:05 290 13 8.7 2.0
2019-Dec-06 04:00 290 10 8.7 2.0
2019-Dec-06 03:55 280 11 gusting 16 8.7 2.0
2019-Dec-06 03:53 280 11 gusting 19 8.7 2.2
2019-Dec-06 03:50 280 10 8.7 2.0
2019-Dec-06 03:45 270 10 gusting 18 8.7 2.0
2019-Dec-06 03:40 280 10 8.7 2.0
2019-Dec-06 03:35 280 11 gusting 16 8.7 2.0
2019-Dec-06 03:30 280 10 8.7 2.0
2019-Dec-06 03:25 280 9 8.7 2.0
2019-Dec-06 03:20 280 14 8.7 2.0
2019-Dec-06 03:15 280 10 8.7 2.0
2019-Dec-06 03:10 280 12 8.7 2.0
2019-Dec-06 03:05 280 12 gusting 18 8.7 2.0
2019-Dec-06 03:00 290 14 8.7 2.0
2019-Dec-06 02:55 280 11 8.7 2.0
2019-Dec-06 02:53 280 9 8.7 2.2
2019-Dec-06 02:50 290 10 8.7 2.0
2019-Dec-06 02:45 290 12 8.7 2.0
2019-Dec-06 02:40 290 12 gusting 17 8.7 2.0
2019-Dec-06 02:35 280 12 8.7 2.0
2019-Dec-06 02:30 280 8 8.7 2.0
2019-Dec-06 02:25 280 8 8.7 2.0
2019-Dec-06 02:20 280 11 8.7 2.0
2019-Dec-06 02:15 280 11 8.7 2.0
2019-Dec-06 02:10 280 12 8.7 2.0
2019-Dec-06 02:05 280 10 8.7 2.0
2019-Dec-06 02:00 280 11 8.7 2.0
2019-Dec-06 01:55 290 11 8.7 2.0
2019-Dec-06 01:53 290 13 gusting 19 8.7 2.2
2019-Dec-06 01:50 290 13 8.7 2.0
2019-Dec-06 01:45 290 10 8.7 2.0
2019-Dec-06 01:40 290 11 8.7 2.0
2019-Dec-06 01:35 280 12 8.7 2.0
2019-Dec-06 01:30 280 11 gusting 17 8.7 2.0
2019-Dec-06 01:25 280 14 8.7 2.0
2019-Dec-06 01:20 280 13 8.7 2.0
2019-Dec-06 01:15 280 16 8.7 2.0
2019-Dec-06 01:10 280 12 8.7 3.0
2019-Dec-06 01:05 290 14 8.7 3.0
2019-Dec-06 01:00 280 16 gusting 23 8.7 3.0
2019-Dec-06 00:55 290 14 8.7 2.0
2019-Dec-06 00:53 290 12 gusting 27 8.7 2.8
2019-Dec-06 00:50 290 18 8.7 2.0
2019-Dec-06 00:45 280 13 8.7 2.0
2019-Dec-06 00:40 280 13 8.7 2.0
2019-Dec-06 00:35 270 12 8.7 2.0
2019-Dec-06 00:30 280 11 gusting 16 8.7 2.0
2019-Dec-06 00:25 280 10 8.7 2.0
2019-Dec-06 00:20 280 12 8.7 2.0
2019-Dec-06 00:15 270 11 8.7 2.0
2019-Dec-06 00:10 280 11 8.7 2.0
2019-Dec-06 00:05 270 10 8.7 2.0
2019-Dec-06 00:00 280 10 8.7 2.0
2019-Dec-05 23:55 280 11 8.7 2.0
2019-Dec-05 23:53 290 8 8.7 2.2
2019-Dec-05 23:50 280 11 8.7 3.0
2019-Dec-05 23:45 290 10 8.7 3.0
2019-Dec-05 23:40 300 13 gusting 19 8.7 3.0
2019-Dec-05 23:35 290 12 8.7 3.0
2019-Dec-05 23:30 290 13 8.7 3.0
2019-Dec-05 23:25 280 13 gusting 18 8.7 3.0
2019-Dec-05 23:20 290 13 8.7 3.0
2019-Dec-05 23:15 280 12 8.7 3.0
2019-Dec-05 23:10 280 15 gusting 20 8.7 3.0
2019-Dec-05 23:05 280 17 8.7 3.0
2019-Dec-05 23:00 280 13 8.7 3.0
2019-Dec-05 22:55 280 11 8.7 3.0
2019-Dec-05 22:53 280 14 8.7 3.3
2019-Dec-05 22:50 280 13 8.7 3.0
2019-Dec-05 22:45 280 13 gusting 18 8.7 3.0
2019-Dec-05 22:40 290 16 8.7 3.0
2019-Dec-05 22:35 290 14 gusting 22 8.7 3.0
2019-Dec-05 22:30 280 12 8.7 3.0
2019-Dec-05 22:25 280 15 8.7 3.0
2019-Dec-05 22:20 280 15 8.7 3.0
2019-Dec-05 22:15 270 15 gusting 20 8.7 4.0
2019-Dec-05 22:10 280 14 gusting 23 8.7 4.0
2019-Dec-05 22:05 280 12 8.7 4.0
2019-Dec-05 22:00 270 11 gusting 17 8.7 4.0
2019-Dec-05 21:55 270 12 8.7 3.0
2019-Dec-05 21:53 280 13 8.7 3.3
2019-Dec-05 21:50 260 13 gusting 18 8.7 3.0
2019-Dec-05 21:45 270 11 8.7 4.0
2019-Dec-05 21:40 280 14 8.7 4.0
2019-Dec-05 21:35 270 11 gusting 16 8.7 4.0
2019-Dec-05 21:30 280 10 8.7 4.0
2019-Dec-05 21:25 280 12 8.7 4.0
2019-Dec-05 21:20 280 12 gusting 17 8.7 4.0
2019-Dec-05 21:15 280 14 gusting 19 8.7 4.0
2019-Dec-05 21:10 290 12 8.7 4.0
2019-Dec-05 21:05 290 12 8.7 4.0
2019-Dec-05 21:00 290 12 8.7 4.0
2019-Dec-05 20:55 290 10 8.7 4.0
2019-Dec-05 20:53 290 9 gusting 19 8.7 4.4
2019-Dec-05 20:50 290 12 8.7 4.0
2019-Dec-05 20:45 290 14 8.7 4.0
2019-Dec-05 20:40 300 12 8.7 4.0
2019-Dec-05 20:35 280 16 8.7 4.0
2019-Dec-05 20:30 300 13 8.7 4.0
2019-Dec-05 20:25 290 13 8.7 4.0
2019-Dec-05 20:20 300 14 8.7 4.0
2019-Dec-05 20:15 300 13 gusting 19 8.7 4.0
2019-Dec-05 20:10 300 10 8.7 4.0
2019-Dec-05 20:05 300 11 8.7 4.0
2019-Dec-05 20:00 310 13 8.7 4.0
2019-Dec-05 19:55 310 14 gusting 19 8.7 4.0
2019-Dec-05 19:53 310 13 gusting 22 8.7 4.4
2019-Dec-05 19:50 310 13 8.7 4.0
2019-Dec-05 19:45 310 17 gusting 22 8.7 5.0
2019-Dec-05 19:40 310 16 gusting 20 8.7 5.0
2019-Dec-05 19:35 290 20 gusting 25 8.7 5.0
2019-Dec-05 19:30 300 17 8.7 5.0
2019-Dec-05 19:25 310 18 8.7 6.0
2019-Dec-05 19:20 300 17 8.7 6.0
2019-Dec-05 19:15 300 15 8.7 6.0
2019-Dec-05 19:10 310 17 8.7 6.0
2019-Dec-05 19:05 310 17 8.7 6.0
2019-Dec-05 19:00 280 18 8.7 6.0
2019-Dec-05 18:55 280 15 8.7 6.0
2019-Dec-05 18:53 280 19 gusting 26 8.7 5.6
2019-Dec-05 18:50 300 20 gusting 26 8.7 6.0
2019-Dec-05 18:45 300 14 gusting 19 8.7 6.0
2019-Dec-05 18:40 290 20 8.7 6.0
2019-Dec-05 18:35 300 18 gusting 23 8.7 5.0
2019-Dec-05 18:30 280 18 8.7 5.0
2019-Dec-05 18:25 290 20 8.7 6.0
2019-Dec-05 18:20 290 20 8.7 6.0
2019-Dec-05 18:15 290 20 gusting 26 8.7 6.0
2019-Dec-05 18:10 300 16 gusting 27 8.7 6.0
2019-Dec-05 18:05 290 18 gusting 23 8.7 6.0
2019-Dec-05 18:00 280 17 8.7 6.0
2019-Dec-05 17:55 280 18 8.7 6.0
2019-Dec-05 17:53 280 20 gusting 27 8.7 6.1
2019-Dec-05 17:50 280 20 8.7 6.0
2019-Dec-05 17:45 280 17 gusting 24 8.7 7.0
2019-Dec-05 17:40 300 13 8.7 7.0
2019-Dec-05 17:35 300 17 gusting 23 8.7 7.0
2019-Dec-05 17:30 280 16 8.7 7.0
2019-Dec-05 17:25 290 13 8.7 6.0
2019-Dec-05 17:20 300 15 gusting 20 8.7 6.0
2019-Dec-05 17:15 280 17 8.7 6.0
2019-Dec-05 17:10 280 14 gusting 20 8.7 6.0
2019-Dec-05 17:05 300 19 gusting 24 8.7 6.0
2019-Dec-05 17:00 280 17 gusting 22 8.7 6.0
2019-Dec-05 16:55 280 16 8.7 7.0
2019-Dec-05 16:53 290 13 gusting 27 8.7 6.7
2019-Dec-05 16:50 290 16 8.7 7.0
2019-Dec-05 16:45 280 20 8.7 7.0
2019-Dec-05 16:40 290 16 gusting 22 8.7 7.0
2019-Dec-05 16:35 280 18 8.7 7.0
2019-Dec-05 16:30 280 14 gusting 20 8.7 7.0
2019-Dec-05 16:25 290 17 8.7 7.0
2019-Dec-05 16:20 290 19 8.7 6.0
2019-Dec-05 16:15 280 17 8.7 7.0
2019-Dec-05 16:10 300 14 8.7 7.0
2019-Dec-05 16:05 280 16 8.7 7.0
2019-Dec-05 16:00 300 15 gusting 20 8.7 7.0
2019-Dec-05 15:55 300 18 8.7 7.0
2019-Dec-05 15:53 300 17 gusting 21 8.7 6.7
2019-Dec-05 15:50 290 16 8.7 7.0
2019-Dec-05 15:45 300 13 8.7 7.0
2019-Dec-05 15:40 290 18 8.7 7.0
2019-Dec-05 15:35 280 15 8.7 7.0
2019-Dec-05 15:30 300 16 gusting 22 8.7 7.0
2019-Dec-05 15:25 300 12 gusting 18 8.7 6.0
2019-Dec-05 15:20 300 17 gusting 23 8.7 6.0
2019-Dec-05 15:15 290 12 8.7 6.0
2019-Dec-05 15:10 290 14 8.7 6.0
2019-Dec-05 15:05 280 13 gusting 18 8.7 6.0
2019-Dec-05 15:00 290 12 gusting 18 8.7 6.0
2019-Dec-05 14:55 300 14 8.7 6.0
2019-Dec-05 14:53 290 13 gusting 21 8.7 5.6
2019-Dec-05 14:50 280 17 gusting 22 8.7 6.0
2019-Dec-05 14:45 290 11 8.7 6.0
2019-Dec-05 14:40 290 15 8.7 6.0
2019-Dec-05 14:35 290 15 8.7 6.0
2019-Dec-05 14:30 290 14 8.7 6.0
2019-Dec-05 14:25 290 13 8.7 5.0
2019-Dec-05 14:20 280 13 8.7 5.0
2019-Dec-05 14:15 280 13 gusting 20 8.7 4.0
2019-Dec-05 14:10 280 13 8.7 4.0
2019-Dec-05 14:05 280 7 8.7 4.0
2019-Dec-05 14:00 270 10 8.7 4.0
2019-Dec-05 13:55 280 10 8.7 4.0
2019-Dec-05 13:53 280 9 8.7 3.9
2019-Dec-05 13:50 280 10 8.7 4.0
2019-Dec-05 13:45 280 10 8.7 3.0
2019-Dec-05 13:40 280 13 8.7 4.0
2019-Dec-05 13:35 280 9 8.7 4.0
2019-Dec-05 13:30 280 8 8.7 3.0
2019-Dec-05 13:25 280 9 8.7 3.0
2019-Dec-05 13:20 280 8 8.7 3.0
2019-Dec-05 13:15 290 8 8.7 3.0
2019-Dec-05 13:10 290 8 8.7 3.0
2019-Dec-05 13:05 300 8 8.7 3.0
2019-Dec-05 13:00 300 7 8.7 2.0
2019-Dec-05 12:55 300 6 8.7 2.0
2019-Dec-05 12:53 300 6 8.7 1.7
2019-Dec-05 12:50 300 6 8.7 1.0
2019-Dec-05 12:45 290 6 8.7 1.0
2019-Dec-05 12:40 280 6 8.7 1.0
2019-Dec-05 12:35 280 6 8.7 1.0
2019-Dec-05 12:30 290 6 8.7 1.0
2019-Dec-05 12:25 290 6 8.7 1.0
2019-Dec-05 12:20 290 6 8.7 1.0
2019-Dec-05 12:15 290 5 8.7-0.0
2019-Dec-05 12:10 290 4 8.7-0.0
2019-Dec-05 12:05 290 4 7.8-1.0
2019-Dec-05 12:00 270 5 7.8-2.0
2019-Dec-05 11:55 270 4 7.0-2.0
2019-Dec-05 11:53 280 4 6.9-2.2
2019-Dec-05 11:50 290 4 6.1-2.0
2019-Dec-05 11:45 280 4 6.1-3.0
2019-Dec-05 11:40 280 4 6.1-3.0
2019-Dec-05 11:35 280 4 5.2-3.0 Mist.
2019-Dec-05 11:30 270 4 5.2-3.0 Mist.
2019-Dec-05 11:25 270 5 4.3-3.0 Mist.
2019-Dec-05 11:20 270 5 3.5-3.0 Mist.
2019-Dec-05 11:15 270 4 3.0-3.0 Mist.
2019-Dec-05 11:10 260 3 3.0-3.0 Mist.
2019-Dec-05 11:05 2.6-3.0 Mist.
2019-Dec-05 11:00 2.6-4.0 Mist.
2019-Dec-05 10:50 3.5-3.0 Mist.
2019-Dec-05 10:45 270 3 4.3-2.0 Mist.
2019-Dec-05 10:40 260 4 5.2-2.0 Mist.
2019-Dec-05 10:35 270 5 5.2-2.0 Mist.
2019-Dec-05 10:30 280 5 5.2-2.0 Mist.
2019-Dec-05 10:25 280 5 4.3-3.0 Mist.
2019-Dec-05 10:20 270 3 3.5-3.0 Mist.
2019-Dec-05 10:15 280 3 3.5-3.0 Mist.
2019-Dec-05 10:10 280 3 3.5-3.0 Mist.
2019-Dec-05 10:05 280 4 3.0-3.0 Mist.
2019-Dec-05 09:55 2.6-3.0 Mist.
2019-Dec-05 09:53 2.6-2.8 Mist.
2019-Dec-05 09:50 3.5-3.0 Mist.
2019-Dec-05 09:45 3.0-3.0 Mist.
2019-Dec-05 09:40 2.6-3.0 Mist.
2019-Dec-05 09:37 1.7-3.3 Mist.
2019-Dec-05 09:35 1.1-3.0 Mist.
2019-Dec-05 09:31 0.7-2.8 Mist.
2019-Dec-05 09:30 0.7-3.0 Mist.
2019-Dec-05 09:25 0.7-3.0 Mist.
2019-Dec-05 09:20 1.1-3.0 Mist.
2019-Dec-05 09:18 1.5-3.3 Mist.
2019-Dec-05 09:15 2.6-3.0 Mist.
2019-Dec-05 09:10 3.5-4.0 Mist.
2019-Dec-05 09:05 3.0-2.0 Mist.
2019-Dec-05 09:00 3.5-2.0 Mist.
2019-Dec-05 08:50 240 3 3.0-2.0 Mist.
2019-Dec-05 08:45 240 3 2.6-2.0 Mist.
2019-Dec-05 08:40 2.6-2.0 Mist.
2019-Dec-05 08:35 3.5-2.0 Mist.
2019-Dec-05 08:30 3.5-2.0 Mist.
2019-Dec-05 08:25 3.5-2.0 Mist.
2019-Dec-05 08:20 4.3-1.0 Mist.
2019-Dec-05 08:15 4.3-1.0 Mist.
2019-Dec-05 08:10 260 4 5.2-1.0 Mist.
2019-Dec-05 08:05 260 5 5.2-1.0 Mist.
2019-Dec-05 08:00 260 4 5.2-0.0 Mist.
2019-Dec-05 07:50 260 5 5.2-0.0 Mist.
2019-Dec-05 07:45 260 6 5.2-0.0 Mist.
2019-Dec-05 07:40 260 6 5.2-0.0 Mist.
2019-Dec-05 07:35 260 6 5.2-1.0 Mist.
2019-Dec-05 07:30 260 6 5.2-1.0 Mist.
2019-Dec-05 07:25 260 6 5.2-1.0 Mist.
2019-Dec-05 07:20 260 5 5.2-1.0 Mist.
2019-Dec-05 07:15 260 6 5.2-1.0 Mist.
2019-Dec-05 07:10 260 5 5.2-1.0 Mist.
2019-Dec-05 07:05 270 5 5.2-1.0 Mist.
2019-Dec-05 07:00 270 4 6.1-2.0
2019-Dec-05 06:55 270 4 6.1-1.0
2019-Dec-05 06:53 280 4 6.1-1.1
2019-Dec-05 06:50 280 4 5.2-1.0 Mist.
2019-Dec-05 06:45 270 3 5.2-1.0 Mist.
2019-Dec-05 06:40 270 4 5.2-1.0 Mist.
2019-Dec-05 06:35 260 4 5.2-1.0 Mist.
2019-Dec-05 06:30 260 3 6.1-1.0
2019-Dec-05 06:25 6.1-1.0
2019-Dec-05 06:20 6.1-1.0
2019-Dec-05 06:15 6.1-1.0
2019-Dec-05 06:10 270 3 6.1-0.0
2019-Dec-05 06:05 260 4 7.0-0.0
2019-Dec-05 06:00 260 3 7.0-0.0
2019-Dec-05 05:55 260 4 7.0-0.0
2019-Dec-05 05:50 250 4 7.0-1.0
2019-Dec-05 05:45 250 4 7.0-1.0
2019-Dec-05 05:40 260 4 7.0-1.0
2019-Dec-05 05:35 260 4 7.0-1.0
2019-Dec-05 05:30 260 4 7.0-1.0
2019-Dec-05 05:25 260 4 7.0-1.0
2019-Dec-05 05:20 260 4 7.0-1.0
2019-Dec-05 05:15 260 5 7.0-1.0
2019-Dec-05 05:10 260 5 7.0-1.0
2019-Dec-05 05:05 260 5 7.0-1.0
2019-Dec-05 05:00 260 5 7.8-0.0
2019-Dec-05 04:55 260 5 7.8-0.0
2019-Dec-05 04:53 270 5 7.8-0.0
2019-Dec-05 04:50 270 5 7.8-0.0
2019-Dec-05 04:45 260 6 7.8-1.0
2019-Dec-05 04:40 260 5 7.8-1.0
2019-Dec-05 04:35 260 5 7.8-1.0
2019-Dec-05 04:30 260 5 8.7-1.0
2019-Dec-05 04:25 270 3 8.7-2.0
2019-Dec-05 04:20 270 3 7.8-2.0
2019-Dec-05 04:15 270 3 7.0-2.0
2019-Dec-05 04:10 260 3 7.0-2.0
2019-Dec-05 04:05 7.0-2.0
2019-Dec-05 04:00 7.0-2.0
2019-Dec-05 03:53 7.8-2.0
2019-Dec-05 03:50 7.8-2.0
2019-Dec-05 03:45 8.7-1.0
2019-Dec-05 03:40 8.7-2.0
2019-Dec-05 03:35 8.7-1.0
2019-Dec-05 03:30 8.7-1.0
2019-Dec-05 03:25 8.7-1.0
2019-Dec-05 03:20 8.7-2.0
2019-Dec-05 03:15 270 3 8.7-1.0
2019-Dec-05 03:10 270 3 8.7-1.0
2019-Dec-05 03:05 260 4 8.7-1.0
2019-Dec-05 03:00 260 4 8.7-2.0
2019-Dec-05 02:55 260 4 8.7-2.0
2019-Dec-05 02:53 260 4 8.7-1.7
2019-Dec-05 02:50 260 3 8.7-2.0
2019-Dec-05 02:45 8.7-2.0
2019-Dec-05 02:40 8.7-2.0
2019-Dec-05 02:35 280 3 8.7-2.0
2019-Dec-05 02:30 8.7-2.0
2019-Dec-05 02:25 8.7-2.0
2019-Dec-05 02:20 8.7-2.0
2019-Dec-05 02:15 8.7-1.0
2019-Dec-05 02:10 8.7-1.0
2019-Dec-05 02:05 8.7-1.0
2019-Dec-05 02:00 8.7-1.0
2019-Dec-05 01:50 270 4 8.7-1.0
2019-Dec-05 01:45 260 4 8.7-0.0
2019-Dec-05 01:40 260 5 8.7 1.0
2019-Dec-05 01:35 260 5 8.7 1.0
2019-Dec-05 01:30 260 5 8.7 1.0
2019-Dec-05 01:25 260 4 8.7 1.0
2019-Dec-05 01:20 260 4 8.7 1.0
2019-Dec-05 01:15 250 4 8.7-0.0
2019-Dec-05 01:10 240 4 8.7-1.0
2019-Dec-05 01:05 240 5 8.7-1.0
2019-Dec-05 01:00 240 4 8.7-1.0
2019-Dec-05 00:55 240 5 8.7-1.0
2019-Dec-05 00:53 250 4 8.7-0.6
2019-Dec-05 00:50 250 4 8.7-1.0
2019-Dec-05 00:45 260 4 8.7-1.0
2019-Dec-05 00:40 250 4 8.7-0.0
2019-Dec-05 00:35 250 5 8.7-0.0
2019-Dec-05 00:30 250 4 8.7-0.0
2019-Dec-05 00:25 260 4 8.7-0.0
2019-Dec-05 00:20 260 4 8.7-0.0
2019-Dec-05 00:15 260 4 8.7-0.0
2019-Dec-05 00:10 260 3 8.7-0.0
2019-Dec-05 00:05 260 4 8.7 1.0
2019-Dec-04 23:55 260 3 8.7 1.0
2019-Dec-04 23:53 250 4 8.7 1.1
2019-Dec-04 23:50 250 4 8.7 1.0
2019-Dec-04 23:45 250 4 8.7 1.0
2019-Dec-04 23:40 260 4 8.7 1.0
2019-Dec-04 23:35 250 4 8.7 2.0
2019-Dec-04 23:30 240 5 8.7 2.0
2019-Dec-04 23:25 250 5 8.7 2.0
2019-Dec-04 23:20 240 5 8.7 2.0
2019-Dec-04 23:15 240 6 8.7 2.0
2019-Dec-04 23:10 240 5 8.7 2.0
2019-Dec-04 23:05 240 5 8.7 3.0
2019-Dec-04 23:00 240 4 8.7 3.0
2019-Dec-04 22:55 250 5 8.7 3.0
2019-Dec-04 22:53 250 5 8.7 2.8
2019-Dec-04 22:50 250 5 8.7 3.0
2019-Dec-04 22:45 260 5 8.7 3.0
2019-Dec-04 22:40 260 5 8.7 3.0
2019-Dec-04 22:35 250 5 8.7 3.0
2019-Dec-04 22:30 250 5 8.7 3.0
2019-Dec-04 22:25 250 5 8.7 3.0
2019-Dec-04 22:20 250 5 8.7 3.0
2019-Dec-04 22:15 240 4 8.7 3.0
2019-Dec-04 22:10 250 4 8.7 3.0
2019-Dec-04 22:05 260 4 8.7 3.0
2019-Dec-04 22:00 250 6 8.7 3.0
2019-Dec-04 21:55 250 5 8.7 3.0
2019-Dec-04 21:53 250 5 8.7 2.8
2019-Dec-04 21:50 240 5 8.7 3.0
2019-Dec-04 21:45 240 5 8.7 3.0
2019-Dec-04 21:40 230 6 8.7 3.0
2019-Dec-04 21:35 240 5 8.7 3.0
2019-Dec-04 21:30 240 6 8.7 3.0
2019-Dec-04 21:25 240 5 8.7 3.0
2019-Dec-04 21:20 240 5 8.7 3.0
2019-Dec-04 21:15 240 6 8.7 3.0
2019-Dec-04 21:10 250 5 8.7 3.0
2019-Dec-04 21:05 250 5 8.7 3.0
2019-Dec-04 21:00 250 5 8.7 3.0
2019-Dec-04 20:55 250 6 8.7 3.0
2019-Dec-04 20:53 260 6 8.7 3.3
2019-Dec-04 20:50 240 6 8.7 3.0
2019-Dec-04 20:45 250 5 8.7 3.0
2019-Dec-04 20:40 260 5 8.7 3.0
2019-Dec-04 20:35 260 5 8.7 3.0
2019-Dec-04 20:30 260 4 8.7 3.0
2019-Dec-04 20:25 260 4 8.7 3.0
2019-Dec-04 20:20 270 5 8.7 3.0
2019-Dec-04 20:15 270 4 8.7 3.0
2019-Dec-04 20:14 280 5 8.7 3.0
2019-Dec-04 20:10 270 6 8.7 3.0
2019-Dec-04 20:05 270 6 8.7 3.0
2019-Dec-04 20:00 270 6 8.7 3.0
2019-Dec-04 19:55 270 5 8.7 3.0
2019-Dec-04 19:53 270 4 8.7 3.3
2019-Dec-04 19:50 270 4 8.7 3.0
2019-Dec-04 19:45 270 5 8.7 3.0
2019-Dec-04 19:40 270 5 8.7 4.0
2019-Dec-04 19:35 270 4 8.7 3.0
2019-Dec-04 19:30 270 5 8.7 3.0
2019-Dec-04 19:28 270 5 8.7 3.3
2019-Dec-04 19:25 270 6 8.7 3.0
2019-Dec-04 19:20 270 6 8.7 4.0
2019-Dec-04 19:15 270 6 8.7 4.0
2019-Dec-04 19:10 270 6 8.7 4.0
2019-Dec-04 19:05 270 6 8.7 4.0
2019-Dec-04 19:00 280 6 8.7 4.0
2019-Dec-04 18:55 260 5 8.7 4.0
2019-Dec-04 18:53 270 6 8.7 3.9
2019-Dec-04 18:50 260 6 8.7 4.0
2019-Dec-04 18:45 260 7 8.7 4.0
2019-Dec-04 18:40 250 8 8.7 4.0
2019-Dec-04 18:35 270 6 8.7 4.0
2019-Dec-04 18:30 260 5 8.7 4.0
2019-Dec-04 18:25 260 6 8.7 4.0
2019-Dec-04 18:20 270 6 8.7 4.0
2019-Dec-04 18:15 260 7 8.7 4.0
2019-Dec-04 18:10 270 8 8.7 4.0
2019-Dec-04 18:05 270 8 8.7 4.0
2019-Dec-04 18:00 270 7 8.7 4.0
2019-Dec-04 17:55 260 7 8.7 4.0
2019-Dec-04 17:53 280 7 8.7 3.9
2019-Dec-04 17:50 280 7 8.7 4.0
2019-Dec-04 17:45 280 10 8.7 4.0
2019-Dec-04 17:40 270 10 8.7 4.0
2019-Dec-04 17:35 270 10 8.7 4.0
2019-Dec-04 17:30 260 8 8.7 4.0
2019-Dec-04 17:25 270 9 8.7 4.0
2019-Dec-04 17:20 270 9 8.7 4.0
2019-Dec-04 17:15 260 9 8.7 4.0
2019-Dec-04 17:10 270 7 8.7 4.0
2019-Dec-04 17:05 280 8 8.7 4.0
2019-Dec-04 17:00 270 6 8.7 4.0
2019-Dec-04 16:55 290 7 8.7 3.0
2019-Dec-04 16:53 290 6 8.7 3.3
2019-Dec-04 16:50 280 9 8.7 3.0
2019-Dec-04 16:45 280 7 8.7 3.0
2019-Dec-04 16:40 270 8 8.7 3.0
2019-Dec-04 16:35 280 7 8.7 3.0
2019-Dec-04 16:30 280 7 8.7 3.0
2019-Dec-04 16:25 270 9 8.7 3.0
2019-Dec-04 16:20 270 7 8.7 3.0
2019-Dec-04 16:15 280 8 8.7 3.0
2019-Dec-04 16:10 270 8 8.7 3.0
2019-Dec-04 16:05 280 8 8.7 3.0
2019-Dec-04 15:55 280 7 8.7 3.0
2019-Dec-04 15:53 290 6 8.7 2.8
2019-Dec-04 15:50 290 7 8.7 3.0
2019-Dec-04 15:45 280 5 8.7 3.0
2019-Dec-04 15:40 280 7 8.7 3.0
2019-Dec-04 15:35 270 6 8.7 3.0
2019-Dec-04 15:30 260 8 8.7 3.0
2019-Dec-04 15:25 270 6 8.7 3.0
2019-Dec-04 15:20 270 6 8.7 3.0
2019-Dec-04 15:15 270 7 8.7 3.0
2019-Dec-04 15:10 270 7 8.7 2.0
2019-Dec-04 15:05 260 6 8.7 2.0
2019-Dec-04 15:00 260 6 8.7 2.0
2019-Dec-04 14:53 250 6 8.7 2.0
2019-Dec-04 14:50 260 6 8.7 2.0
2019-Dec-04 14:45 250 7 8.7 2.0
2019-Dec-04 14:40 250 6 8.7 2.0
2019-Dec-04 14:35 260 6 8.7 2.0
2019-Dec-04 14:30 270 6 8.7 2.0
2019-Dec-04 14:25 260 5 8.7 2.0
2019-Dec-04 14:20 270 6 8.7 2.0
2019-Dec-04 14:15 260 5 8.7 2.0
2019-Dec-04 14:10 260 5 8.7 2.0
2019-Dec-04 14:05 260 5 8.7 2.0
2019-Dec-04 14:00 250 6 8.7 1.0
2019-Dec-04 13:55 250 5 8.7 1.0
2019-Dec-04 13:53 260 4 8.7 1.1
2019-Dec-04 13:50 250 5 8.7 1.0
2019-Dec-04 13:45 250 5 8.7 1.0
2019-Dec-04 13:40 250 6 8.7 1.0
2019-Dec-04 13:35 260 5 8.7 1.0
2019-Dec-04 13:30 250 5 8.7 1.0
2019-Dec-04 13:25 250 7 8.7 1.0
2019-Dec-04 13:20 250 6 8.7 1.0
2019-Dec-04 13:15 250 6 8.7 1.0
2019-Dec-04 13:10 240 4 8.7-0.0
2019-Dec-04 13:05 240 3 8.7-1.0
2019-Dec-04 13:00 8.7-1.0
2019-Dec-04 12:55 8.7-1.0
2019-Dec-04 12:53 8.7-1.1
2019-Dec-04 12:50 8.7-1.0
2019-Dec-04 12:45 8.7-1.0
2019-Dec-04 12:40 8.7-1.0
2019-Dec-04 12:35 8.7-1.0
2019-Dec-04 12:30 8.7-2.0
2019-Dec-04 12:25 8.7-2.0
2019-Dec-04 12:20 8.7-2.0
2019-Dec-04 12:15 230 3 8.7-2.0
2019-Dec-04 12:10 8.7-2.0
2019-Dec-04 12:05 8.7-2.0
2019-Dec-04 12:00 8.7-2.0
2019-Dec-04 11:53 320 2 8.7-3.0
2019-Dec-04 11:50 330 3 8.7-3.0
2019-Dec-04 11:45 8.7-2.0
2019-Dec-04 11:40 8.7-2.0
2019-Dec-04 11:35 8.7-2.0
2019-Dec-04 11:30 8.7-2.0
2019-Dec-04 11:25 8.7-3.0
2019-Dec-04 11:20 8.7-3.0
2019-Dec-04 11:15 8.7-3.0
2019-Dec-04 11:10 8.7-3.0
2019-Dec-04 11:05 8.7-3.0
2019-Dec-04 11:00 8.7-3.0
2019-Dec-04 10:55 8.7-2.0
2019-Dec-04 10:53 8.7-2.8
2019-Dec-04 10:50 220 3 8.7-3.0
2019-Dec-04 10:45 8.7-2.0
2019-Dec-04 10:40 8.7-3.0
2019-Dec-04 10:35 8.7-3.0
2019-Dec-04 10:30 8.7-3.0
2019-Dec-04 10:25 8.7-3.0
2019-Dec-04 10:20 8.7-3.0
2019-Dec-04 10:15 8.7-3.0
2019-Dec-04 10:10 8.7-3.0
2019-Dec-04 10:05 8.7-3.0
2019-Dec-04 09:55 030 3 8.7-2.0
2019-Dec-04 09:53 8.7-2.2
2019-Dec-04 09:50 8.7-2.0
2019-Dec-04 09:45 8.7-2.0
2019-Dec-04 09:40 230 3 8.7-2.0
2019-Dec-04 09:35 230 3 8.7-2.0
2019-Dec-04 09:30 240 5 8.7-2.0
2019-Dec-04 09:25 240 5 8.7-2.0
2019-Dec-04 09:20 230 5 8.7-3.0
2019-Dec-04 09:15 230 3 8.7-3.0
2019-Dec-04 09:10 8.7-3.0
2019-Dec-04 09:05 8.7-3.0
2019-Dec-04 09:00 8.7-3.0
2019-Dec-04 08:50 8.7-3.0
2019-Dec-04 08:45 300 3 8.7-3.0
2019-Dec-04 08:40 8.7-3.0
2019-Dec-04 08:35 8.7-3.0
2019-Dec-04 08:30 8.7-3.0
2019-Dec-04 08:25 250 3 8.7-3.0
2019-Dec-04 08:20 8.7-4.0
2019-Dec-04 08:15 8.7-4.0
2019-Dec-04 08:10 8.7-4.0
2019-Dec-04 08:05 8.7-4.0
2019-Dec-04 07:50 8.7-4.0
2019-Dec-04 07:45 8.7-4.0
2019-Dec-04 07:40 8.7-4.0
2019-Dec-04 07:35 220 4 8.7-4.0
2019-Dec-04 07:30 220 3 8.7-4.0
2019-Dec-04 07:25 220 4 8.7-4.0
2019-Dec-04 07:20 230 3 8.7-4.0
2019-Dec-04 07:15 8.7-4.0
2019-Dec-04 07:10 240 3 8.7-4.0
2019-Dec-04 07:05 280 4 8.7-3.0
2019-Dec-04 07:00 270 4 8.7-3.0